Location: Newark
(45.5000°N, 11.4167°E)
Time: 21:04:19
(UTC+00:00)

Explorer 11/Cluster Stage 4 - Pass Details

Date: 21 August 2019
Orbit: 467 x 1259 km, 28.8° (Epoch: 22 October)

Event Time Altitude Azimuth Distance (km) Brightness Sun altitude
Rises 11:45:23 0° 235° (SW) 4,195 10.7 56.1°
Reaches altitude 10° 11:49:09 10° 221° (SW) 3,197 10.3 55.9°
Maximum altitude 11:54:49 21° 177° (S) 2,362 10.0 55.7°
Drops below altitude 10° 12:00:03 10° 131° (SE) 2,932 9.8 55.4°
Sets 12:03:20 0° 116° (ESE) 3,758 10.1 55.2°
